[[{"header":{"parameterUnit":"m.s-1","parameterCategory":1,"la1":30.2991,"la2":30.254,"lo1":-89.0895,"lo2":-89.0444,"dy":0.0017,"dx":0.0017,"nx":28,"ny":28,"refTime":"2023-07-31T03:00:00:Z","depth":0,"parameterNumber":2,"parameterNumberName":"U-component_of_WINDS"},"data":[0,0,0,0,0,0,0,0,0,0,0,0,0,0,0,0,0,0,0,0,0,0,0,0,0,0,0,0,0,0,0,0,0,0,0,0,0,0,0,0,0,0,0,0,0,0,0,0,0,0,0,0,0,0,0,0,0,0,-0.6545,-0.6544,0,-0.6509,-0.6508,-0.6508,-0.6492,-0.6492,-0.6493,-0.6493,-0.6453,-0.6452,-0.6451,0,0,0,0,0,0,0,0,0,0,0,0,0,-0.6597,-0.6596,-0.6545,-0.6544,-0.6544,-0.6509,-0.6508,-0.6508,-0.6492,-0.6492,-0.6493,-0.6493,-0.6454,-0.6452,-0.6451,0,0,0,0,0,0,0,0,0,0,0,0,0,-0.6569,-0.6596,-0.6545,-0.6532,-0.653,-0.6509,-0.6508,-0.6508,-0.6492,-0.6492,-0.6493,-0.6493,-0.6454,-0.6452,-0.6451,-0.6439,0,0,-0.6446,-0.6445,0,0,0,0,0,0,0,0,-0.6571,-0.6567,-0.6534,-0.6533,-0.6531,-0.6505,-0.6512,-0.6484,-0.6492,-0.6507,-0.6493,-0.6493,-0.647,-0.6467,-0.646,-0.6437,-0.6435,-0.6446,-0.6445,-0.6444,-0.6443,0,0,0,0,0,0,0,-0.6573,-0.6568,-0.653,-0.6534,-0.6532,-0.6527,-0.6523,-0.6507,-0.6488,-0.6505,-0.6504,-0.65,-0.6469,-0.6462,-0.6459,-0.6434,-0.6446,-0.6444,-0.6443,-0.6442,-0.6399,-0.6399,0,0,0,0,0,0,-0.6577,-0.657,-0.6531,-0.6529,-0.6552,-0.6526,-0.6522,-0.6513,-0.6488,-0.6485,-0.65,-0.65,-0.6465,-0.6461,-0.6458,-0.6442,-0.6444,-0.6442,-0.6441,-0.6399,-0.6399,-0.6399,0,0,0,0,0,0,-0.6578,-0.6574,-0.6533,-0.6549,-0.6544,-0.6525,-0.6516,-0.6513,-0.6505,-0.6485,-0.6481,-0.6496,-0.6465,-0.646,-0.6444,-0.644,-0.6442,-0.644,-0.6399,-0.6399,-0.6399,-0.6409,0,0,0,0,0,0,-0.658,-0.6574,-0.657,-0.6549,-0.6543,-0.652,-0.6516,-0.6512,-0.6503,-0.6502,-0.648,-0.6476,-0.6464,-0.6446,-0.6442,-0.6438,-0.6439,-0.6399,-0.6399,-0.6399,-0.6409,-0.641,-0.641,0,0,0,0,0,-0.6582,-0.6574,-0.657,-0.6565,-0.6538,-0.652,-0.6516,-0.6503,-0.6502,-0.6498,-0.6484,-0.6477,-0.6441,-0.6445,-0.644,-0.6435,-0.6399,-0.6399,-0.6399,-0.6409,-0.641,-0.641,0,0,0,0,0,0,-0.6593,-0.6571,-0.6566,-0.6552,-0.6538,-0.6517,-0.6511,-0.6504,-0.649,-0.6489,-0.6473,-0.6468,-0.6453,-0.6442,-0.6447,-0.6422,-0.642,-0.6418,-0.6429,-0.6429,-0.643,-0.6432,-0.6437,0,0,0,0,0,-0.6595,-0.6583,-0.6564,-0.6553,-0.6546,-0.653,-0.6522,-0.6513,-0.6498,-0.6492,-0.6477,-0.6462,-0.6447,-0.6438,-0.6423,-0.6408,-0.6402,-0.6402,-0.6402,-0.6403,-0.6402,-0.6392,-0.6392,-0.6397,-0.6397,-0.6397,0,0,-0.6596,-0.6583,-0.6576,-0.6555,-0.6543,-0.6531,-0.6525,-0.6512,-0.6503,-0.6489,-0.6473,-0.6462,-0.6444,-0.6428,-0.642,-0.6418,-0.6399,-0.6402,-0.6403,-0.6401,-0.6392,-0.6391,-0.6391,-0.6397,-0.6397,-0.6397,0,0,-0.6593,-0.6582,-0.6572,-0.656,-0.6543,-0.6532,-0.653,-0.651,-0.6503,-0.6486,-0.6476,-0.6464,-0.6439,-0.6427,-0.6417,-0.6409,-0.6402,-0.6405,-0.6406,-0.6397,-0.6397,-0.6396,-0.6393,-0.6392,-0.6404,-0.6404,-0.6404,0,-0.6597,-0.6579,-0.6567,-0.6555,-0.6545,-0.6534,-0.6523,-0.6512,-0.6491,-0.6484,-0.6483,-0.6451,-0.6438,-0.6419,-0.6417,-0.641,-0.6406,-0.6407,-0.6398,-0.6398,-0.6397,-0.6394,-0.6393,-0.6405,-0.6404,-0.6404,-0.6404,0,-0.6585,-0.6573,-0.6566,-0.6547,-0.6537,-0.6525,-0.651,-0.6501,-0.6494,-0.6483,-0.6466,-0.645,-0.6432,-0.6427,-0.6418,-0.6406,-0.6405,-0.6401,-0.6399,-0.6397,-0.6394,-0.6392,-0.6405,-0.6405,-0.6405,-0.6405,0,0,-0.6588,-0.6563,-0.656,-0.6551,-0.6531,-0.6521,-0.6509,-0.6492,-0.6484,-0.647,-0.6458,-0.6438,-0.6434,-0.6423,-0.6414,-0.6406,-0.64,-0.6403,-0.6402,-0.6402,-0.6385,-0.6388,-0.6387,-0.6396,-0.6395,-0.6395,-0.6386,0,-0.6582,-0.6561,-0.6549,-0.6532,-0.652,-0.6509,-0.6498,-0.6484,-0.6474,-0.6461,-0.6449,-0.6435,-0.6431,-0.6424,-0.6416,-0.6403,-0.6397,-0.6403,-0.6384,-0.6383,-0.6389,-0.6385,-0.6388,-0.6381,-0.6385,-0.6385,-0.6385,0,-0.6572,-0.6559,-0.6541,-0.6523,-0.6517,-0.6508,-0.6491,-0.648,-0.6463,-0.6456,-0.6444,-0.6435,-0.6421,-0.642,-0.6399,-0.6404,-0.6396,-0.6388,-0.6387,-0.6384,-0.6384,-0.6382,-0.6378,-0.6377,-0.6383,-0.6383,-0.6383,0,-0.6576,-0.6553,-0.654,-0.6532,-0.651,-0.6504,-0.6495,-0.6479,-0.6469,-0.6454,-0.6448,-0.6432,-0.6422,-0.641,-0.6396,-0.6396,-0.6376,-0.6374,-0.6369,-0.637,-0.6365,-0.6366,-0.636,-0.6361,-0.6361,-0.6361,-0.6361,0,-0.657,-0.6559,-0.6541,-0.6532,-0.652,-0.6506,-0.6494,-0.6484,-0.647,-0.6458,-0.6447,-0.6437,-0.6419,-0.6406,-0.6395,-0.638,-0.6376,-0.6369,-0.6366,-0.637,-0.637,-0.6363,-0.6363,-0.636,-0.636,-0.636,-0.636,0,-0.6572,-0.6559,-0.6543,-0.6525,-0.6519,-0.6511,-0.6494,-0.6485,-0.6474,-0.646,-0.6456,-0.6438,-0.6422,-0.6407,-0.6386,-0.6378,-0.6363,-0.6359,-0.6368,-0.6367,-0.6362,-0.6363,-0.6351,-0.6349,-0.6352,-0.6352,-0.6352,0,-0.6569,-0.656,-0.6541,-0.6533,-0.6524,-0.6511,-0.6502,-0.6488,-0.6479,-0.646,-0.6453,-0.6436,-0.6422,-0.6397,-0.6382,-0.6365,-0.6361,-0.6358,-0.6358,-0.6362,-0.636,-0.6361,-0.6359,-0.6358,-0.6358,-0.6358,-0.6358,0,-0.6565,-0.6559,-0.6546,-0.6531,-0.6521,-0.6508,-0.6495,-0.6489,-0.6473,-0.6462,-0.6446,-0.6436,-0.6414,-0.6397,-0.6379,-0.6368,-0.636,-0.6358,-0.6356,-0.6359,-0.6365,-0.6362,-0.6369,-0.6358,-0.6358,-0.6358,-0.6358,-0.6358,-0.6563,-0.6556,-0.6541,-0.6527,-0.6516,-0.6504,-0.6494,-0.6483,-0.6469,-0.6452,-0.6444,-0.6428,-0.6411,-0.6386,-0.6375,-0.6362,-0.636,-0.6357,-0.6356,-0.6355,-0.6356,-0.6368,-0.6358,-0.6358,-0.6358,-0.6358,-0.6358,0,-0.6558,-0.6549,-0.6536,-0.6519,-0.6507,-0.6502,-0.6487,-0.6478,-0.6464,-0.645,-0.6437,-0.6418,-0.6402,-0.6386,-0.6369,-0.6361,-0.6357,-0.6357,-0.6357,-0.6354,-0.6359,-0.6362,-0.6361,-0.6361,-0.6361,-0.6361,-0.6361,-0.6361,-0.6555,-0.6541,-0.6533,-0.6513,-0.6503,-0.6488,-0.648,-0.6469,-0.6457,-0.6437,-0.6424,-0.6414,-0.6399,-0.6381,-0.6365,-0.6361,-0.6355,-0.6356,-0.635,-0.6354,-0.6354,-0.6354,-0.6357,-0.6355,-0.6355,-0.6347,-0.6347,-0.6347]},{"header":{"parameterUnit":"m.s-1","parameterCategory":1,"la1":30.2991,"la2":30.254,"lo1":-89.0895,"lo2":-89.0444,"dy":0.0017,"dx":0.0017,"nx":28,"ny":28,"refTime":"2023-07-31T03:00:00:Z","depth":0,"parameterNumber":3,"parameterNumberName":"V-component_of_WINDS"},"data":[0,0,0,0,0,0,0,0,0,0,0,0,0,0,0,0,0,0,0,0,0,0,0,0,0,0,0,0,0,0,0,0,0,0,0,0,0,0,0,0,0,0,0,0,0,0,0,0,0,0,0,0,0,0,0,0,0,0,-1.1447,-1.1448,0,-1.1535,-1.1536,-1.1537,-1.1547,-1.1546,-1.1545,-1.1545,-1.1636,-1.1639,-1.1643,0,0,0,0,0,0,0,0,0,0,0,0,0,-1.1288,-1.1291,-1.1447,-1.1448,-1.1449,-1.1535,-1.1536,-1.1537,-1.1547,-1.1546,-1.1545,-1.1544,-1.1635,-1.1639,-1.1643,0,0,0,0,0,0,0,0,0,0,0,0,0,-1.1365,-1.1292,-1.1446,-1.1464,-1.1467,-1.1535,-1.1536,-1.1538,-1.1548,-1.1546,-1.1545,-1.1544,-1.1634,-1.1639,-1.1643,-1.17,0,0,-1.1658,-1.166,0,0,0,0,0,0,0,0,-1.136,-1.137,-1.1461,-1.1463,-1.1466,-1.1529,-1.1514,-1.1592,-1.1548,-1.1517,-1.1545,-1.1543,-1.1602,-1.1609,-1.1629,-1.1704,-1.1708,-1.1659,-1.1662,-1.1664,-1.1665,0,0,0,0,0,0,0,-1.1355,-1.1367,-1.1482,-1.1462,-1.1465,-1.1468,-1.1478,-1.1529,-1.1566,-1.152,-1.152,-1.1531,-1.1603,-1.1624,-1.1631,-1.171,-1.1659,-1.1663,-1.1666,-1.1668,-1.1838,-1.184,0,0,0,0,0,0,-1.1346,-1.1362,-1.1479,-1.1484,-1.1409,-1.1472,-1.1483,-1.151,-1.1565,-1.1572,-1.1532,-1.1531,-1.1616,-1.1625,-1.1634,-1.1705,-1.1664,-1.1668,-1.1671,-1.1837,-1.1838,-1.184,0,0,0,0,0,0,-1.1343,-1.1356,-1.1475,-1.1424,-1.1439,-1.1476,-1.1507,-1.1512,-1.1533,-1.1574,-1.1581,-1.1546,-1.1615,-1.1627,-1.1684,-1.1709,-1.1671,-1.1675,-1.1835,-1.1837,-1.1839,-1.1848,0,0,0,0,0,0,-1.1338,-1.1355,-1.1377,-1.1424,-1.1442,-1.1523,-1.1508,-1.1515,-1.1542,-1.1541,-1.159,-1.1597,-1.1615,-1.1677,-1.1689,-1.1715,-1.1679,-1.1833,-1.1836,-1.1839,-1.1845,-1.185,-1.1854,0,0,0,0,0,-1.1332,-1.1375,-1.1378,-1.1392,-1.1469,-1.1525,-1.1535,-1.1555,-1.1544,-1.1566,-1.1593,-1.1595,-1.1704,-1.1682,-1.1696,-1.1724,-1.1831,-1.1835,-1.1838,-1.1844,-1.1849,-1.1854,0,0,0,0,0,0,-1.133,-1.1382,-1.1385,-1.1445,-1.148,-1.1526,-1.1555,-1.156,-1.16,-1.1598,-1.1622,-1.1633,-1.1689,-1.1712,-1.1687,-1.1782,-1.1766,-1.1773,-1.1766,-1.1771,-1.1776,-1.177,-1.1683,0,0,0,0,0,-1.1337,-1.1377,-1.142,-1.1468,-1.1486,-1.1518,-1.1542,-1.1555,-1.1593,-1.1608,-1.1639,-1.1676,-1.1718,-1.1746,-1.1787,-1.1848,-1.186,-1.1874,-1.1879,-1.1882,-1.1888,-1.1923,-1.1931,-1.1852,-1.1852,-1.1852,0,0,-1.1351,-1.1384,-1.1408,-1.1469,-1.1498,-1.154,-1.153,-1.1574,-1.1606,-1.1615,-1.1671,-1.1694,-1.1737,-1.1797,-1.1825,-1.1818,-1.1912,-1.1887,-1.1889,-1.1893,-1.1928,-1.1935,-1.1942,-1.1854,-1.1854,-1.1853,0,0,-1.1398,-1.1426,-1.147,-1.15,-1.1544,-1.1564,-1.1575,-1.162,-1.1637,-1.1693,-1.1701,-1.1739,-1.1811,-1.1842,-1.1867,-1.1926,-1.193,-1.1939,-1.1962,-1.1996,-1.2002,-1.2008,-1.2031,-1.2038,-1.1944,-1.1944,-1.1944,0,-1.141,-1.1473,-1.1492,-1.1537,-1.1564,-1.1574,-1.1619,-1.1647,-1.1702,-1.1721,-1.1712,-1.1804,-1.1834,-1.1901,-1.1916,-1.1935,-1.1949,-1.1934,-1.2,-1.2006,-1.2011,-1.2033,-1.2041,-1.1945,-1.1945,-1.1945,-1.1945,0,-1.1486,-1.1529,-1.156,-1.1613,-1.1644,-1.1688,-1.1716,-1.1744,-1.1754,-1.1776,-1.1834,-1.1869,-1.1919,-1.1935,-1.1945,-1.2005,-1.1999,-1.1995,-1.1979,-1.2019,-1.204,-1.2049,-1.1946,-1.1946,-1.1945,-1.1945,0,0,-1.1535,-1.1599,-1.161,-1.1635,-1.1684,-1.1718,-1.1764,-1.1812,-1.1837,-1.1874,-1.1914,-1.1975,-1.1972,-1.2,-1.2014,-1.2043,-1.209,-1.2036,-1.2037,-1.2046,-1.2159,-1.2163,-1.2173,-1.2092,-1.2094,-1.2095,-1.2156,0,-1.1588,-1.167,-1.1689,-1.1759,-1.18,-1.181,-1.185,-1.1885,-1.1906,-1.1945,-1.1969,-1.2012,-1.2004,-1.2021,-1.2051,-1.2078,-1.2113,-1.2073,-1.2131,-1.2133,-1.2121,-1.2183,-1.2188,-1.2244,-1.2164,-1.2166,-1.2167,0,-1.1662,-1.1702,-1.1776,-1.1821,-1.1839,-1.1874,-1.1921,-1.1957,-1.1997,-1.2011,-1.2043,-1.2053,-1.2102,-1.2083,-1.2151,-1.2124,-1.2148,-1.2165,-1.2167,-1.2175,-1.2153,-1.2194,-1.2262,-1.2271,-1.218,-1.2179,-1.2178,0,-1.1693,-1.1764,-1.1818,-1.1839,-1.1892,-1.1917,-1.1941,-1.198,-1.2008,-1.2048,-1.2067,-1.2112,-1.2137,-1.2172,-1.2195,-1.2179,-1.2262,-1.2244,-1.2276,-1.2275,-1.2294,-1.2292,-1.2368,-1.2307,-1.2307,-1.2306,-1.2306,0,-1.1752,-1.1797,-1.1833,-1.1866,-1.1917,-1.1939,-1.199,-1.2013,-1.2048,-1.2087,-1.2097,-1.2133,-1.2161,-1.2201,-1.2219,-1.2273,-1.2284,-1.2297,-1.2302,-1.2297,-1.2296,-1.2315,-1.2312,-1.2309,-1.2308,-1.2308,-1.2307,0,-1.1795,-1.182,-1.188,-1.1926,-1.1938,-1.1974,-1.2014,-1.2047,-1.2068,-1.2117,-1.213,-1.2164,-1.2212,-1.2238,-1.2298,-1.231,-1.2371,-1.2373,-1.2358,-1.236,-1.239,-1.2388,-1.2482,-1.2496,-1.2424,-1.2424,-1.2425,0,-1.1831,-1.1867,-1.1916,-1.1943,-1.1967,-1.2009,-1.2038,-1.2061,-1.209,-1.2139,-1.2167,-1.2215,-1.2255,-1.2331,-1.2362,-1.2408,-1.2412,-1.2441,-1.2419,-1.2413,-1.2414,-1.2412,-1.2417,-1.2446,-1.2446,-1.2447,-1.2447,0,-1.1895,-1.1906,-1.1946,-1.1992,-1.2026,-1.2063,-1.21,-1.2121,-1.215,-1.2183,-1.2232,-1.2263,-1.2324,-1.2373,-1.2421,-1.2446,-1.2452,-1.2454,-1.2464,-1.2461,-1.2451,-1.2458,-1.237,-1.2452,-1.2452,-1.2451,-1.2451,-1.2451,-1.1937,-1.1969,-1.2009,-1.2055,-1.2085,-1.2119,-1.2153,-1.2178,-1.222,-1.2271,-1.2282,-1.2334,-1.2374,-1.244,-1.2466,-1.2508,-1.2502,-1.2516,-1.252,-1.2523,-1.2525,-1.2443,-1.2516,-1.2516,-1.2516,-1.2516,-1.2516,0,-1.2002,-1.2028,-1.207,-1.2121,-1.2157,-1.2159,-1.22,-1.223,-1.2275,-1.2312,-1.2351,-1.2408,-1.2455,-1.2489,-1.2537,-1.2564,-1.2568,-1.2576,-1.2575,-1.2581,-1.2527,-1.2514,-1.2572,-1.2572,-1.2572,-1.2572,-1.2572,-1.2572,-1.204,-1.2095,-1.2111,-1.2181,-1.2207,-1.2259,-1.2282,-1.2314,-1.2343,-1.2406,-1.2445,-1.2467,-1.2503,-1.2554,-1.2598,-1.2606,-1.2624,-1.2632,-1.2642,-1.2591,-1.2585,-1.2579,-1.2568,-1.2636,-1.2636,-1.2693,-1.2693,-1.2694]}]]